Theta_e
285 281 279 281 282 282 279 279 278 280 284 281 281 283 287 287 284 283 284 283 283 285 288 288 288 289 292 294 294 295 294 292 292 289 288 287 287 287 287 288 289 289 289 290
281 279 284 285 284 283 281 279 279 283 284 280 280 280 285 284 285 287 288 287 285 284 285 287 286 288 292 294 295 294 293 292 291 289 288 287 286 286 287 287 288 289 288 289
279 281 286 284 281 281 280 279 279 280 281 280 278 277 282 283 284 285 286 289 288 286 286 286 286 288 290 292 293 293 292 290 289 288 288 286 286 285 285 285 286 287 287 288
280 285 283 282 281 282 278 283 282 281 278 273 278 269 279 281 282 283 284 283 286 286 288 288 288 288 290 292 293 292 291 289 288 288 287 286 285 284 284 284 285 285 286 286
279 280 281 281 282 284 280 281 281 280 276 275 275 271 277 279 280 283 284 285 285 286 287 288 289 290 291 291 291 291 289 288 287 287 287 285 284 284 283 283 283 284 284 285
280 282 283 282 283 284 283 282 281 279 276 264 275 274 275 277 282 283 284 285 285 284 286 288 290 291 291 289 289 289 288 286 286 286 285 285 284 283 283 282 283 282 283 283
278 279 282 284 281 284 281 278 272 270 262 266 274 273 276 282 283 284 285 286 285 283 284 288 289 289 288 289 289 288 288 286 285 285 285 284 284 284 283 283 282 282 281 281
272 272 279 282 282 280 281 279 272 266 264 267 275 270 277 284 286 285 285 285 285 282 286 288 289 290 289 289 288 289 287 285 285 285 284 284 284 283 283 282 282 281 281 281
271 274 279 281 283 282 278 275 282 276 266 266 272 277 281 286 285 285 285 284 284 284 286 288 289 289 289 289 288 288 287 285 285 285 284 283 283 283 282 282 282 281 281 283
277 271 278 279 281 282 280 281 273 273 269 262 270 272 275 282 284 285 285 285 285 284 286 287 288 289 290 290 289 288 287 286 285 284 284 284 283 283 282 282 281 281 281 282
279 277 276 277 276 276 276 273 275 278 275 266 263 272 279 282 283 284 285 285 284 283 285 286 287 287 289 289 287 287 286 285 285 284 283 283 283 283 282 282 281 281 281 282
280 279 272 275 278 279 279 277 279 273 270 272 269 275 286 283 283 283 285 285 284 284 285 285 285 285 286 286 287 286 285 285 285 284 283 283 283 283 282 281 281 281 280 281
279 275 269 271 275 277 276 277 279 277 277 273 267 274 284 285 284 284 285 286 285 284 285 285 284 285 286 286 286 285 285 285 284 284 283 283 282 281 277 275 273 277 274 274
282 276 273 269 271 273 274 277 278 275 272 272 275 278 283 285 287 288 288 288 286 285 285 284 284 285 285 286 285 285 284 285 284 284 283 282 281 280 276 273 270 271 274 273
274 263 271 271 273 274 275 275 277 276 276 274 278 277 281 284 286 288 284 284 284 284 283 284 284 284 283 283 284 283 284 284 284 283 281 280 278 276 273 269 268 269 280 272
272 261 269 266 272 274 271 273 276 279 278 277 278 278 283 286 287 285 286 286 284 285 284 286 286 285 285 284 284 283 283 284 283 282 281 276 275 273 272 266 264 265 267 268
266 262 258 258 270 270 266 273 277 279 279 277 275 281 284 284 286 287 288 287 286 287 287 286 286 286 286 285 285 283 283 283 282 282 278 276 274 273 271 267 263 267 268 266
264 262 263 260 260 253 271 277 276 279 282 282 280 281 284 285 287 288 285 286 285 286 285 283 286 286 286 285 285 284 282 282 282 281 278 275 274 274 271 266 267 264 265 267
272 267 256 255 252 266 270 272 275 276 277 283 282 285 286 287 286 286 286 287 288 288 287 286 286 285 280 284 284 284 281 281 281 280 279 276 275 274 271 268 269 264 267 269
272 271 266 256 255 252 272 275 279 278 272 278 278 279 280 282 279 285 281 278 283 286 284 284 281 280 283 283 284 283 281 280 281 281 280 277 276 276 274 272 268 264 266 271
257 264 264 265 263 263 274 275 281 273 272 279 279 279 279 278 282 283 279 276 274 275 278 274 277 282 285 283 283 282 281 281 284 281 278 276 276 276 276 272 269 269 269 271
261 260 262 266 264 261 276 274 272 278 281 281 279 279 280 281 282 283 280 279 277 275 274 276 276 276 277 281 283 282 281 282 277 277 277 276 275 276 275 274 272 273 273 273
261 266 265 269 268 276 278 276 279 281 279 279 280 281 281 281 282 282 282 282 281 278 278 276 278 277 275 276 281 280 277 276 276 276 277 276 274 276 275 275 274 274 275 274
268 272 270 270 273 275 277 278 281 281 280 280 282 282 282 281 282 284 283 284 283 282 279 276 278 277 277 276 279 279 277 277 277 278 277 275 275 275 275 277 277 276 275 275
270 272 268 270 274 275 277 279 280 281 282 281 282 282 283 282 283 287 286 285 285 283 281 279 279 279 279 278 277 277 277 277 277 278 277 276 276 276 276 277 277 276 277 278
272 271 269 268 274 274 275 278 281 280 279 281 281 282 283 282 282 287 285 284 283 281 280 281 281 280 279 279 278 278 278 278 278 277 277 277 276 276 277 277 276 282 282 281
Wind_Speed
2 2 10 9 4 4 1 3 4 3 3 3 7 14 20 10 7 10 12 11 10 14 8 8 8 8 9 8 10 12 11 8 8 3 4 2 3 2 2 2 4 4 4 5
3 7 8 2 5 6 5 4 7 7 4 4 6 13 18 9 12 15 19 14 14 7 8 8 9 8 13 14 14 11 10 10 6 4 3 3 3 2 2 2 3 4 5 5
6 5 3 6 3 4 4 6 6 10 5 4 6 10 13 8 12 10 11 13 10 15 15 10 11 12 10 13 14 14 11 10 7 7 6 4 4 3 2 0 1 3 4 4
6 5 4 3 5 7 6 8 10 9 0 5 3 8 7 7 10 6 10 10 14 14 11 12 15 13 15 14 12 11 11 9 7 8 5 5 4 4 2 2 1 2 4 4
7 2 3 4 7 8 9 1 3 3 4 2 2 1 9 2 7 10 11 12 14 13 15 17 19 18 14 13 14 12 10 8 8 7 7 6 5 3 3 2 1 2 3 4
7 1 4 7 2 4 2 2 4 5 2 2 9 8 6 5 10 8 4 5 9 10 12 12 11 13 12 10 11 12 12 8 8 7 7 8 8 6 4 2 1 2 2 2
4 6 4 3 3 1 2 1 3 5 5 8 3 4 8 8 12 6 7 7 6 7 9 12 16 16 14 16 14 11 12 9 8 8 7 7 7 7 6 4 2 1 1 1
2 8 6 3 4 6 8 6 6 7 4 6 2 10 8 10 11 10 8 9 4 7 7 12 15 15 17 17 15 14 12 9 9 8 8 6 6 4 4 4 3 1 1 2
2 6 0 0 1 2 4 4 3 4 3 2 7 9 9 14 9 8 10 5 8 6 9 12 12 14 15 16 16 16 13 9 9 8 6 6 6 6 5 5 3 2 1 2
5 5 1 2 1 2 4 1 3 3 3 6 6 7 7 12 7 9 8 7 7 5 7 8 11 12 12 14 12 11 11 13 11 8 7 6 7 6 5 5 4 3 2 2
6 3 3 1 5 7 2 2 1 4 5 5 3 8 8 8 4 5 10 9 5 6 6 6 7 7 10 11 12 12 11 11 10 8 7 7 6 6 5 4 4 4 2 3
5 4 5 10 4 3 3 6 7 5 5 4 3 11 8 3 6 3 6 8 4 2 4 5 6 8 9 10 11 12 10 11 10 8 8 7 7 6 6 5 5 4 4 3
7 4 5 8 5 4 5 5 6 2 3 12 5 9 3 4 5 2 5 8 6 2 5 5 6 8 10 10 10 10 10 10 9 9 8 7 7 6 6 5 3 2 3 3
4 4 6 4 1 5 7 11 7 5 6 11 23 20 16 18 19 11 7 5 6 7 7 8 7 8 9 10 11 10 9 9 10 9 9 9 8 7 6 6 4 4 5 2
2 5 4 7 12 13 17 18 17 14 23 11 31 16 18 20 16 19 5 5 4 6 6 7 8 8 7 7 7 7 8 10 10 10 9 9 7 6 6 5 3 3 4 3
2 5 6 11 12 10 16 20 19 23 16 21 23 34 11 11 12 13 16 11 7 8 9 9 8 8 12 12 11 10 10 11 11 10 10 7 7 7 6 5 4 3 4 3
3 2 4 8 6 13 17 14 19 18 16 13 19 25 7 13 19 21 18 12 14 14 11 10 13 14 11 13 13 14 13 11 11 10 7 9 8 8 7 6 4 5 5 2
6 4 2 8 3 6 14 9 11 19 24 19 22 15 18 20 24 18 8 14 15 15 13 10 8 9 11 8 10 9 10 11 12 11 10 9 9 9 6 6 6 3 3 5
17 5 3 3 6 18 23 17 6 14 24 10 17 19 19 19 12 26 12 17 20 16 14 11 11 8 6 11 11 12 11 11 12 13 13 12 11 10 8 8 7 4 3 3
10 14 8 1 5 8 2 2 6 7 13 17 17 18 15 6 7 14 5 5 11 10 5 9 8 6 9 9 12 13 13 13 16 13 13 11 11 10 11 9 7 4 3 4
1 3 12 14 10 9 12 24 12 5 8 18 18 18 19 12 9 7 7 6 4 5 5 2 5 9 9 10 12 12 12 17 12 10 9 10 10 11 9 7 5 5 4 3
7 4 4 4 9 12 15 11 12 11 11 13 18 19 21 22 21 12 8 6 8 7 1 2 4 3 2 7 11 11 13 6 7 9 9 9 9 8 6 8 6 4 5 5
4 8 5 6 6 14 5 6 19 15 12 15 20 22 21 22 15 8 2 5 6 3 3 2 6 5 2 3 6 8 5 8 8 9 9 9 7 8 7 9 8 5 6 5
5 4 4 1 8 11 13 5 6 13 18 16 18 19 19 18 16 7 3 3 4 4 3 3 5 5 3 2 2 3 6 6 8 8 8 7 8 8 7 6 6 7 7 7
6 6 5 10 14 15 12 6 7 13 15 11 16 19 16 15 16 6 2 5 4 4 4 4 5 5 5 3 2 3 5 6 4 5 5 6 6 9 8 8 9 9 9 10
6 16 10 14 13 14 16 12 6 13 15 13 13 18 15 10 11 7 5 5 4 6 5 6 7 7 7 6 6 4 1 4 5 4 4 4 5 5 5 6 6 16 16 16
Wind_Direction
338 108 220 220 234 240 67 229 266 272 282 234 234 255 265 253 240 234 246 235 230 234 220 203 188 174 155 151 150 160 154 159 144 131 123 112 149 131 98 97 71 69 44 39
38 240 236 232 218 244 255 261 269 279 257 199 286 269 270 243 238 234 232 230 222 197 200 189 178 170 175 170 170 165 164 161 161 127 127 125 136 133 131 132 74 64 38 33
182 220 39 178 198 220 243 228 252 248 326 253 304 274 265 261 254 249 234 227 220 202 202 187 178 184 172 171 173 170 165 160 154 130 115 89 73 75 100 48 50 18 32 27
232 271 214 159 223 181 267 210 237 250 250 238 94 287 268 258 271 232 242 218 223 207 197 189 182 182 185 182 169 161 155 155 151 147 131 137 154 159 177 166 186 5 29 14
245 224 202 214 224 161 228 169 193 208 194 335 227 358 269 300 291 268 246 227 225 209 193 189 188 184 182 164 166 157 148 148 145 146 146 137 142 150 151 155 103 36 15 17
245 273 210 208 151 179 120 89 65 44 70 330 220 191 256 192 220 247 245 240 228 205 196 191 178 160 165 153 152 148 152 154 149 148 150 151 156 161 162 153 90 25 18 3
307 228 195 164 147 93 133 132 3 331 354 231 331 240 251 268 263 244 265 280 260 205 180 172 167 169 158 160 158 155 156 157 156 152 153 158 159 165 160 156 155 29 355 318
212 321 175 183 207 194 175 159 165 201 245 291 70 242 245 248 272 260 252 253 236 189 185 182 178 172 166 164 162 160 160 150 158 157 165 157 154 159 167 155 154 162 204 275
216 268 279 99 359 97 230 192 176 58 83 26 243 288 286 282 270 273 260 260 255 216 186 179 173 172 168 165 168 165 161 154 162 162 154 159 162 165 168 161 150 167 228 254
287 313 0 357 58 43 163 220 82 19 235 262 277 274 241 305 310 349 320 280 261 208 188 172 173 171 171 169 164 157 162 164 165 158 165 166 167 165 166 157 163 188 245 253
349 180 279 65 203 191 128 285 13 136 158 206 299 265 222 260 7 349 321 321 294 217 195 182 169 162 164 158 160 161 159 151 162 167 162 158 165 164 165 163 164 199 217 242
339 292 264 221 237 203 179 207 177 169 233 230 188 265 278 239 307 296 344 329 338 242 214 186 174 152 154 161 160 167 163 161 170 164 159 167 158 158 171 173 179 198 223 246
345 313 313 334 4 3 227 204 212 135 117 227 179 256 285 303 312 301 346 354 353 202 168 172 160 172 173 174 172 168 167 168 162 164 163 165 166 167 173 172 187 211 230 240
275 269 259 249 42 343 300 320 273 210 227 248 240 253 284 300 303 291 296 307 308 265 198 174 191 192 180 176 173 171 169 165 165 166 172 174 173 175 176 180 179 198 211 207
115 252 265 280 293 299 285 278 262 233 242 232 258 241 245 253 270 276 313 275 287 283 247 195 192 189 181 174 169 167 171 168 167 173 177 185 164 157 161 171 189 231 247 200
351 269 304 282 272 271 290 280 268 253 249 253 265 270 257 284 277 285 279 295 281 270 250 227 192 184 192 188 184 176 176 179 172 178 190 163 158 164 186 166 183 222 248 235
223 218 33 269 4 330 293 263 234 247 231 240 249 258 278 271 265 258 265 254 258 259 249 223 205 199 193 192 179 185 182 169 177 183 174 172 168 181 193 165 156 217 225 214
212 160 174 263 60 231 255 319 294 265 253 240 258 266 258 254 267 275 224 246 241 237 237 228 207 204 195 175 180 157 160 174 181 188 181 173 176 189 178 165 193 214 206 197
217 197 262 222 205 280 286 289 331 320 290 293 291 284 271 270 279 279 231 232 239 230 230 225 209 196 150 171 167 162 168 177 185 193 190 181 180 186 178 191 198 192 196 202
196 206 204 156 230 238 315 305 268 276 268 5 346 326 321 294 249 273 304 303 257 248 221 212 191 165 164 172 161 166 179 183 200 192 194 179 177 185 191 192 181 182 190 207
168 192 216 241 244 277 8 329 308 262 331 330 329 319 314 296 261 280 308 295 264 276 262 263 172 185 190 147 159 178 172 206 195 178 163 172 178 188 190 164 157 169 186 188
180 182 218 247 231 247 9 340 342 333 304 325 322 312 312 304 292 268 277 304 323 315 261 149 141 136 99 151 160 172 196 169 142 150 164 174 177 183 174 177 178 168 179 198
264 183 206 185 274 292 157 303 298 294 328 318 312 312 313 306 287 263 300 5 344 338 75 43 121 115 86 134 164 163 165 149 155 162 177 179 169 182 176 180 185 182 190 199
267 162 217 131 249 256 281 217 241 299 295 317 311 303 306 305 302 302 23 43 36 17 38 60 94 93 101 119 118 125 155 155 155 171 181 168 177 183 184 191 188 192 191 201
206 164 218 252 275 281 270 227 237 291 293 297 302 301 304 306 299 287 61 32 27 68 36 43 67 70 57 101 128 153 148 142 158 177 171 175 187 193 189 200 196 206 213 201
205 244 240 253 265 273 284 283 269 283 286 305 309 306 315 318 297 280 78 54 37 48 35 47 53 46 32 31 45 39 125 177 171 180 179 182 185 191 204 200 221 230 226 219